Year,Month,Day,Hour,Minute,Value (Times are PST for temperature in C)
2014,09,18,08,23,13.80
2014,09,18,08,24,13.70
2014,09,18,08,25,13.80
2014,09,18,08,26,13.80
2014,09,18,08,27,13.80
2014,09,18,08,28,13.80
2014,09,18,08,29,13.80
2014,09,18,08,30,13.80
2014,09,18,08,31,13.90
2014,09,18,08,32,13.90
2014,09,18,08,33,13.90
2014,09,18,08,34,14.00
2014,09,18,08,35,14.00
2014,09,18,08,36,14.00
2014,09,18,08,37,14.10
2014,09,18,08,38,14.10
2014,09,18,08,39,14.20
2014,09,18,08,40,14.30
2014,09,18,08,41,14.30
2014,09,18,08,42,14.40
2014,09,18,08,43,14.50
2014,09,18,08,44,14.60
2014,09,18,08,45,14.70
2014,09,18,08,46,14.80
2014,09,18,08,47,14.80
2014,09,18,08,48,14.90
2014,09,18,08,49,14.90
2014,09,18,08,50,15.00
2014,09,18,08,51,15.10
2014,09,18,08,52,15.20
2014,09,18,08,53,15.20
2014,09,18,08,54,15.30
2014,09,18,08,55,15.40
2014,09,18,08,56,15.40
2014,09,18,08,57,15.50
2014,09,18,08,58,15.60
2014,09,18,08,59,15.70
2014,09,18,09,00,15.70
2014,09,18,09,01,15.70
2014,09,18,09,02,15.80
2014,09,18,09,03,15.80
2014,09,18,09,04,15.90
2014,09,18,09,05,15.90
2014,09,18,09,06,15.90
2014,09,18,09,07,16.00
2014,09,18,09,08,16.00
2014,09,18,09,09,16.10
2014,09,18,09,10,16.20
2014,09,18,09,11,16.20
2014,09,18,09,12,16.30
2014,09,18,09,13,16.30
2014,09,18,09,14,16.40
2014,09,18,09,15,16.40
2014,09,18,09,16,16.50
2014,09,18,09,17,16.60
2014,09,18,09,18,16.60
2014,09,18,09,19,16.70
2014,09,18,09,20,16.70
2014,09,18,09,21,16.80
2014,09,18,09,22,16.80
2014,09,18,09,23,16.90
2014,09,18,09,24,16.90
2014,09,18,09,25,16.90
2014,09,18,09,26,17.00
2014,09,18,09,27,17.00
2014,09,18,09,28,17.00
2014,09,18,09,29,17.00
2014,09,18,09,30,17.10
2014,09,18,09,31,17.10
2014,09,18,09,32,17.10
2014,09,18,09,33,17.10
2014,09,18,09,34,17.10
2014,09,18,09,35,17.10
2014,09,18,09,36,17.10
2014,09,18,09,37,17.10
2014,09,18,09,38,17.10
2014,09,18,09,39,17.10
2014,09,18,09,40,17.10
2014,09,18,09,41,17.10
2014,09,18,09,42,17.10
2014,09,18,09,43,17.10
2014,09,18,09,44,17.10
2014,09,18,09,45,17.10
2014,09,18,09,46,17.10
2014,09,18,09,47,17.10
2014,09,18,09,48,17.10
2014,09,18,09,49,17.10
2014,09,18,09,50,17.10
2014,09,18,09,51,17.10
2014,09,18,09,52,17.10
2014,09,18,09,53,17.10
2014,09,18,09,54,17.10
2014,09,18,09,55,17.10
2014,09,18,09,56,17.10
2014,09,18,09,57,17.10
2014,09,18,09,58,17.10
2014,09,18,09,59,17.10
2014,09,18,10,00,17.10
2014,09,18,10,01,17.10
2014,09,18,10,02,17.10
2014,09,18,10,03,17.10
2014,09,18,10,04,17.10
2014,09,18,10,05,17.20
2014,09,18,10,06,17.20
2014,09,18,10,07,17.20
2014,09,18,10,08,17.20
2014,09,18,10,09,17.20
2014,09,18,10,10,17.20
2014,09,18,10,11,17.20
2014,09,18,10,12,17.30
2014,09,18,10,13,17.30
2014,09,18,10,14,17.30
2014,09,18,10,15,17.30
2014,09,18,10,16,17.30
2014,09,18,10,17,17.40
2014,09,18,10,18,17.40
2014,09,18,10,19,17.40
2014,09,18,10,20,17.40
2014,09,18,10,21,17.40
2014,09,18,10,22,17.40
2014,09,18,10,23,17.50
2014,09,18,10,24,17.50
2014,09,18,10,25,17.50
2014,09,18,10,26,17.60
2014,09,18,10,27,17.60
2014,09,18,10,28,17.70
2014,09,18,10,29,17.70
2014,09,18,10,30,17.70
2014,09,18,10,31,17.70
2014,09,18,10,32,17.80
2014,09,18,10,33,17.80
2014,09,18,10,34,17.80
2014,09,18,10,35,17.80
2014,09,18,10,36,17.80
2014,09,18,10,37,17.90
2014,09,18,10,38,17.90
2014,09,18,10,39,17.90
2014,09,18,10,40,17.90
2014,09,18,10,41,17.90
2014,09,18,10,42,17.80
2014,09,18,10,43,17.80
2014,09,18,10,44,17.80
2014,09,18,10,45,17.80
2014,09,18,10,46,17.80
2014,09,18,10,47,17.80
2014,09,18,10,48,17.80
2014,09,18,10,49,17.80
2014,09,18,10,50,17.70
2014,09,18,10,51,17.70
2014,09,18,10,52,17.70
2014,09,18,10,53,17.70
2014,09,18,10,54,17.70
2014,09,18,10,55,17.70
2014,09,18,10,56,17.60
2014,09,18,10,57,17.60
2014,09,18,10,58,17.60
2014,09,18,10,59,17.60
2014,09,18,11,00,17.60
2014,09,18,11,01,17.60
2014,09,18,11,02,17.60
2014,09,18,11,03,17.60
2014,09,18,11,04,17.60
2014,09,18,11,05,17.50
2014,09,18,11,06,17.50
2014,09,18,11,07,17.50
2014,09,18,11,08,17.50
2014,09,18,11,09,17.50
2014,09,18,11,10,17.50
2014,09,18,11,11,17.50
2014,09,18,11,12,17.50
2014,09,18,11,13,17.50
2014,09,18,11,14,17.50
2014,09,18,11,15,17.60
2014,09,18,11,16,17.60
2014,09,18,11,17,17.60
2014,09,18,11,18,17.60
2014,09,18,11,19,17.60
2014,09,18,11,20,17.60
2014,09,18,11,21,17.60
2014,09,18,11,22,17.60
2014,09,18,11,23,17.60
2014,09,18,11,24,17.60
2014,09,18,11,25,17.60
2014,09,18,11,26,17.60
2014,09,18,11,27,17.60
2014,09,18,11,28,17.60
2014,09,18,11,29,17.70
2014,09,18,11,30,17.70
2014,09,18,11,31,17.70
2014,09,18,11,32,17.80
2014,09,18,11,33,17.80
2014,09,18,11,34,17.80
2014,09,18,11,35,17.90
2014,09,18,11,36,17.90
2014,09,18,11,37,17.90
2014,09,18,11,38,18.00
2014,09,18,11,39,18.10
2014,09,18,11,40,18.10
2014,09,18,11,41,18.10
2014,09,18,11,42,18.10
2014,09,18,11,43,18.10
2014,09,18,11,44,18.20
2014,09,18,11,45,18.20
2014,09,18,11,46,18.20
2014,09,18,11,47,18.20
2014,09,18,11,48,18.20
2014,09,18,11,49,18.20
2014,09,18,11,50,18.20
2014,09,18,11,51,18.30
2014,09,18,11,52,18.30
2014,09,18,11,53,18.30
2014,09,18,11,54,18.30
2014,09,18,11,55,18.40
2014,09,18,11,56,18.40
2014,09,18,11,57,18.40
2014,09,18,11,58,18.40
2014,09,18,11,59,18.40
2014,09,18,12,00,18.40
2014,09,18,12,01,18.40
2014,09,18,12,02,18.50
2014,09,18,12,03,18.50
2014,09,18,12,04,18.50
2014,09,18,12,05,18.50
2014,09,18,12,06,18.50
2014,09,18,12,07,18.50
2014,09,18,12,08,18.50
2014,09,18,12,09,18.50
2014,09,18,12,10,18.40
2014,09,18,12,11,18.30
2014,09,18,12,12,18.20
2014,09,18,12,13,18.10
2014,09,18,12,14,18.00
2014,09,18,12,15,17.90
2014,09,18,12,16,17.80
2014,09,18,12,17,17.60
2014,09,18,12,18,17.50
2014,09,18,12,19,17.30
2014,09,18,12,20,17.20
2014,09,18,12,21,17.10
2014,09,18,12,22,17.00
2014,09,18,12,23,16.90
2014,09,18,12,24,16.90
2014,09,18,12,25,16.80
2014,09,18,12,26,16.80
2014,09,18,12,27,16.70
2014,09,18,12,28,16.60
2014,09,18,12,29,16.50
2014,09,18,12,30,16.40
2014,09,18,12,31,16.30
2014,09,18,12,32,16.20
2014,09,18,12,33,16.20
2014,09,18,12,34,16.20
2014,09,18,12,35,16.10
2014,09,18,12,36,16.10
2014,09,18,12,37,16.00
2014,09,18,12,38,16.00
2014,09,18,12,39,15.90
2014,09,18,12,40,15.90
2014,09,18,12,41,15.90
2014,09,18,12,42,16.00
2014,09,18,12,43,16.00
2014,09,18,12,44,16.00
2014,09,18,12,45,16.10
2014,09,18,12,46,16.10
2014,09,18,12,47,16.10
2014,09,18,12,48,16.20
2014,09,18,12,49,16.20
2014,09,18,12,50,16.20
2014,09,18,12,51,16.20
2014,09,18,12,52,16.20
2014,09,18,12,53,16.20
2014,09,18,12,54,16.20
2014,09,18,12,55,16.20
2014,09,18,12,56,16.20
2014,09,18,12,57,16.20
2014,09,18,12,58,16.20
2014,09,18,12,59,16.20
2014,09,18,13,00,16.20
2014,09,18,13,01,16.20
2014,09,18,13,02,16.20
2014,09,18,13,03,16.30
2014,09,18,13,04,16.30
2014,09,18,13,05,16.30
2014,09,18,13,06,16.30
2014,09,18,13,07,16.30
2014,09,18,13,08,16.30
2014,09,18,13,09,16.30
2014,09,18,13,10,16.40
2014,09,18,13,11,16.40
2014,09,18,13,12,16.40
2014,09,18,13,13,16.40
2014,09,18,13,14,16.50
2014,09,18,13,15,16.50
2014,09,18,13,16,16.50
2014,09,18,13,17,16.50
2014,09,18,13,18,16.50
2014,09,18,13,19,16.50
2014,09,18,13,20,16.50
2014,09,18,13,21,16.50
2014,09,18,13,22,16.50
2014,09,18,13,23,16.50
2014,09,18,13,24,16.50
2014,09,18,13,25,16.50
2014,09,18,13,26,16.50
2014,09,18,13,27,16.40
2014,09,18,13,28,16.40
2014,09,18,13,29,16.40
2014,09,18,13,30,16.40
2014,09,18,13,31,16.40
2014,09,18,13,32,16.40
2014,09,18,13,33,16.40
2014,09,18,13,34,16.40
2014,09,18,13,35,16.40
2014,09,18,13,36,16.40
2014,09,18,13,37,16.40
2014,09,18,13,38,16.40
2014,09,18,13,39,16.40
2014,09,18,13,40,16.40
2014,09,18,13,41,16.40
2014,09,18,13,42,16.40
2014,09,18,13,43,16.40
2014,09,18,13,44,16.40
2014,09,18,13,45,16.40
2014,09,18,13,46,16.40
2014,09,18,13,47,16.40
2014,09,18,13,48,16.40
2014,09,18,13,49,16.40
2014,09,18,13,50,16.40
2014,09,18,13,51,16.30
2014,09,18,13,52,16.30
2014,09,18,13,53,16.20
2014,09,18,13,54,16.20
2014,09,18,13,55,16.20
2014,09,18,13,56,16.10
2014,09,18,13,57,16.10
2014,09,18,13,58,16.10
2014,09,18,13,59,16.10
2014,09,18,14,00,16.10
2014,09,18,14,01,16.00
2014,09,18,14,02,16.00
2014,09,18,14,03,16.00
2014,09,18,14,04,16.00
2014,09,18,14,05,15.90
2014,09,18,14,06,15.90
2014,09,18,14,07,15.90
2014,09,18,14,08,15.90
2014,09,18,14,09,15.90
2014,09,18,14,10,15.90
2014,09,18,14,11,15.90
2014,09,18,14,12,15.90
2014,09,18,14,13,15.90
2014,09,18,14,14,15.90
2014,09,18,14,15,16.00
2014,09,18,14,16,16.00
2014,09,18,14,17,16.00
2014,09,18,14,18,16.10
2014,09,18,14,19,16.10
2014,09,18,14,20,16.10
2014,09,18,14,21,16.10
2014,09,18,14,22,16.20
2014,09,18,14,23,16.20
2014,09,18,14,24,16.20
2014,09,18,14,25,16.20
2014,09,18,14,26,16.20
2014,09,18,14,27,16.30
2014,09,18,14,28,16.20
2014,09,18,14,29,16.30
2014,09,18,14,30,16.30
2014,09,18,14,31,16.30
2014,09,18,14,32,16.30
2014,09,18,14,33,16.30
2014,09,18,14,34,16.30
2014,09,18,14,35,16.30
2014,09,18,14,36,16.30
2014,09,18,14,37,16.30
2014,09,18,14,38,16.30
2014,09,18,14,39,16.30
2014,09,18,14,40,16.30
2014,09,18,14,41,16.30
2014,09,18,14,42,16.30
2014,09,18,14,43,16.40
2014,09,18,14,44,16.40
2014,09,18,14,45,16.40
2014,09,18,14,46,16.40
2014,09,18,14,47,16.40
2014,09,18,14,48,16.50
2014,09,18,14,49,16.50
2014,09,18,14,50,16.50
2014,09,18,14,51,16.50
2014,09,18,14,52,16.50
2014,09,18,14,53,16.50
2014,09,18,14,54,16.50
2014,09,18,14,55,16.50
2014,09,18,14,56,16.50
2014,09,18,14,57,16.50
2014,09,18,14,58,16.50
2014,09,18,14,59,16.60
2014,09,18,15,00,16.60
2014,09,18,15,01,16.60
2014,09,18,15,02,16.60
2014,09,18,15,03,16.60
2014,09,18,15,04,16.60
2014,09,18,15,05,16.60
2014,09,18,15,06,16.60
2014,09,18,15,07,16.70
2014,09,18,15,08,16.70
2014,09,18,15,09,16.70
2014,09,18,15,10,16.70
2014,09,18,15,11,16.70
2014,09,18,15,12,16.70
2014,09,18,15,13,16.70
2014,09,18,15,14,16.70
2014,09,18,15,15,16.80
2014,09,18,15,16,16.80
2014,09,18,15,17,16.80
2014,09,18,15,18,16.80
2014,09,18,15,19,16.80
2014,09,18,15,20,16.80
2014,09,18,15,21,16.80
2014,09,18,15,22,16.80
2014,09,18,15,23,16.90
2014,09,18,15,24,16.90
2014,09,18,15,25,16.90
2014,09,18,15,26,16.90
2014,09,18,15,27,16.90
2014,09,18,15,28,16.90
2014,09,18,15,29,16.90
2014,09,18,15,30,16.90
2014,09,18,15,31,16.90
2014,09,18,15,32,16.90
2014,09,18,15,33,16.90
2014,09,18,15,34,16.90
2014,09,18,15,35,17.00
2014,09,18,15,36,17.00
2014,09,18,15,37,17.00
2014,09,18,15,38,17.00
2014,09,18,15,39,17.00
2014,09,18,15,40,17.00
2014,09,18,15,41,16.90
2014,09,18,15,42,16.90
2014,09,18,15,43,16.90
2014,09,18,15,44,16.90
2014,09,18,15,45,16.80
2014,09,18,15,46,16.80
2014,09,18,15,47,16.80
2014,09,18,15,48,16.80
2014,09,18,15,49,16.80
2014,09,18,15,50,16.80
2014,09,18,15,51,16.80
2014,09,18,15,52,16.80
2014,09,18,15,53,16.80
2014,09,18,15,54,16.80
2014,09,18,15,55,16.80
2014,09,18,15,56,16.80
2014,09,18,15,57,16.80
2014,09,18,15,58,16.80
2014,09,18,15,59,16.80
2014,09,18,16,00,16.80
2014,09,18,16,01,16.90
2014,09,18,16,02,16.80
2014,09,18,16,03,16.80
2014,09,18,16,04,16.80
2014,09,18,16,05,16.80
2014,09,18,16,06,16.80
2014,09,18,16,07,16.80
2014,09,18,16,08,16.80
2014,09,18,16,09,16.80
2014,09,18,16,10,16.80
2014,09,18,16,11,16.80
2014,09,18,16,12,16.80
2014,09,18,16,13,16.80
2014,09,18,16,14,16.80
2014,09,18,16,15,16.80
2014,09,18,16,16,16.80
2014,09,18,16,17,16.80
2014,09,18,16,18,16.70
2014,09,18,16,19,16.70
2014,09,18,16,20,16.70
2014,09,18,16,21,16.70
2014,09,18,16,22,16.70
2014,09,18,16,23,16.60
2014,09,18,16,24,16.60
2014,09,18,16,25,16.60
2014,09,18,16,26,16.60
2014,09,18,16,27,16.60
2014,09,18,16,28,16.60
2014,09,18,16,29,16.60
2014,09,18,16,30,16.50
2014,09,18,16,31,16.50
2014,09,18,16,32,16.50
2014,09,18,16,33,16.50
2014,09,18,16,34,16.50
2014,09,18,16,35,16.50
2014,09,18,16,36,16.60
2014,09,18,16,37,16.60
2014,09,18,16,38,16.60
2014,09,18,16,39,16.60
2014,09,18,16,40,16.60
2014,09,18,16,41,16.60
2014,09,18,16,42,16.60
2014,09,18,16,43,16.60
2014,09,18,16,44,16.60
2014,09,18,16,45,16.60
2014,09,18,16,46,16.60
2014,09,18,16,47,16.60
2014,09,18,16,48,16.60
2014,09,18,16,49,16.60
2014,09,18,16,50,16.60
2014,09,18,16,51,16.60
2014,09,18,16,52,16.60
2014,09,18,16,53,16.60
2014,09,18,16,54,16.60
2014,09,18,16,55,16.60
2014,09,18,16,56,16.60
2014,09,18,16,57,16.60
2014,09,18,16,58,16.60
2014,09,18,16,59,16.60
2014,09,18,17,00,16.60
2014,09,18,17,01,16.60
2014,09,18,17,02,16.60
2014,09,18,17,03,16.60
2014,09,18,17,04,16.60
2014,09,18,17,05,16.60
2014,09,18,17,06,16.60
2014,09,18,17,07,16.50
2014,09,18,17,08,16.50
2014,09,18,17,09,16.50
2014,09,18,17,10,16.50
2014,09,18,17,11,16.50
2014,09,18,17,12,16.50
2014,09,18,17,13,16.50
2014,09,18,17,14,16.50
2014,09,18,17,15,16.50
2014,09,18,17,16,16.50
2014,09,18,17,17,16.50
2014,09,18,17,18,16.50
2014,09,18,17,19,16.50
2014,09,18,17,20,16.50
2014,09,18,17,21,16.50
2014,09,18,17,22,16.40
2014,09,18,17,23,16.40
2014,09,18,17,24,16.40
2014,09,18,17,25,16.40
2014,09,18,17,26,16.40
2014,09,18,17,27,16.40
2014,09,18,17,28,16.40
2014,09,18,17,29,16.40
2014,09,18,17,30,16.40
2014,09,18,17,31,16.50
2014,09,18,17,32,16.50
2014,09,18,17,33,16.50
2014,09,18,17,34,16.50
2014,09,18,17,35,16.50
2014,09,18,17,36,16.50
2014,09,18,17,37,16.50
2014,09,18,17,38,16.50
2014,09,18,17,39,16.50
2014,09,18,17,40,16.50
2014,09,18,17,41,16.50
2014,09,18,17,42,16.50
2014,09,18,17,43,16.50
2014,09,18,17,44,16.50
2014,09,18,17,45,16.50
2014,09,18,17,46,16.40
2014,09,18,17,47,16.40
2014,09,18,17,48,16.40
2014,09,18,17,49,16.30
2014,09,18,17,50,16.30
2014,09,18,17,51,16.30
2014,09,18,17,52,16.30
2014,09,18,17,53,16.20
2014,09,18,17,54,16.20
2014,09,18,17,55,16.20
2014,09,18,17,56,16.20
2014,09,18,17,57,16.20
2014,09,18,17,58,16.20
2014,09,18,17,59,16.20
2014,09,18,18,00,16.20
2014,09,18,18,01,16.20
2014,09,18,18,02,16.20
2014,09,18,18,03,16.30
2014,09,18,18,04,16.30
2014,09,18,18,05,16.30
2014,09,18,18,06,16.30
2014,09,18,18,07,16.30
2014,09,18,18,08,16.40
2014,09,18,18,09,16.40
2014,09,18,18,10,16.40
2014,09,18,18,11,16.40
2014,09,18,18,12,16.40
2014,09,18,18,13,16.40
2014,09,18,18,14,16.50
2014,09,18,18,15,16.50
2014,09,18,18,16,16.50
2014,09,18,18,17,16.50
2014,09,18,18,18,16.50
2014,09,18,18,19,16.50
2014,09,18,18,20,16.50
2014,09,18,18,21,16.50
2014,09,18,18,22,16.50
2014,09,18,18,23,16.50
2014,09,18,18,24,16.50
2014,09,18,18,25,16.50
2014,09,18,18,26,16.50
2014,09,18,18,27,16.40
2014,09,18,18,28,16.40
2014,09,18,18,29,16.40
2014,09,18,18,30,16.40
2014,09,18,18,31,16.40
2014,09,18,18,32,16.40
2014,09,18,18,33,16.40
2014,09,18,18,34,16.30
2014,09,18,18,35,16.30
2014,09,18,18,36,16.30
2014,09,18,18,37,16.30
2014,09,18,18,38,16.20
2014,09,18,18,39,16.20
2014,09,18,18,40,16.20
2014,09,18,18,41,16.20
2014,09,18,18,42,16.20
2014,09,18,18,43,16.20
2014,09,18,18,44,16.20
2014,09,18,18,45,16.20
2014,09,18,18,46,16.20
2014,09,18,18,47,16.20
2014,09,18,18,48,16.20
2014,09,18,18,49,16.20
2014,09,18,18,50,16.20
2014,09,18,18,51,16.20
2014,09,18,18,52,16.20
2014,09,18,18,53,16.20
2014,09,18,18,54,16.20
2014,09,18,18,55,16.20
2014,09,18,18,56,16.20
2014,09,18,18,57,16.20
2014,09,18,18,58,16.30
2014,09,18,18,59,16.30
2014,09,18,19,00,16.30
2014,09,18,19,01,16.30
2014,09,18,19,02,16.30
2014,09,18,19,03,16.30
2014,09,18,19,04,16.30
2014,09,18,19,05,16.30
2014,09,18,19,06,16.30
2014,09,18,19,07,16.30
2014,09,18,19,08,16.30
2014,09,18,19,09,16.40
2014,09,18,19,10,16.40
2014,09,18,19,11,16.40
2014,09,18,19,12,16.40
2014,09,18,19,13,16.50
2014,09,18,19,14,16.50
2014,09,18,19,15,16.60
2014,09,18,19,16,16.60
2014,09,18,19,17,16.70
2014,09,18,19,18,16.70
2014,09,18,19,19,16.70
2014,09,18,19,20,16.70
2014,09,18,19,21,16.80
2014,09,18,19,22,16.70
2014,09,18,19,23,16.70
2014,09,18,19,24,16.70
2014,09,18,19,25,16.70
2014,09,18,19,26,16.70
2014,09,18,19,27,16.70
2014,09,18,19,28,16.70
2014,09,18,19,29,16.70
2014,09,18,19,30,16.70
2014,09,18,19,31,16.70
2014,09,18,19,32,16.70
